Regional Weather Roundup
Issued by NWS Albany, NY

Home | Current Version | Previous Version | Text Only | Print | Product List | Glossary On
Versions: 1 2 3 4 5 6 7 8 9 10 11 12 13 14 15 16 17 18 19 20 21 22 23 24 25 26 27 28 29 30 31 32 33 34 35 36 37 38 39 40 41 42 43 44 45 46 47 48 49 50
000
ASUS41 KALY 012010
RWRALY

NEW YORK STATE HOURLY WEATHER ROUNDUP
NATIONAL WEATHER SERVICE ALBANY NY
400 PM EDT TUE SEP 01 2015

NOTE: "FAIR" INDICATES FEW OR NO CLOUDS BELOW 12,000 FEET WITH NO
SIGNIFICANT WEATHER AND/OR NO OBSTRUCTIONS TO VISIBILITY.

NYZ032-033-038>043-046>054-057>066-NYZ062>081-012100-
EAST


CITY           SKY/WX    TMP DP  RH WIND       PRES   REMARKS
ALBANY         MOSUNNY   86  61  42 SE3       30.02F
GLENS FALLS    SUNNY     85  59  41 E7        30.01F
POUGHKEEPSIE   SUNNY     86  59  39 CALM      30.02F
NEWBURGH       MOSUNNY   84  63  48 VRB6      30.05F
MONTGOMERY     SUNNY     87  62  43 SE5       30.03F
WHITE PLAINS   MOSUNNY   86  62  44 VRB6      30.03F
ISLIP          MOSUNNY   83  61  47 S9        30.02S
NEW YORK CITY  MOSUNNY   86  64  47 S7        30.01F
CENTRAL PARK   MOSUNNY   86  63  45 S8        30.04F
$$

NYZ005>009-017-018-044>046-055-056-012100-
CENTRAL


CITY           SKY/WX    TMP DP  RH WIND       PRES   REMARKS
FULTON         PTSUNNY   80  68  66 CALM      30.05F
SYRACUSE       CLOUDY    81  68  64 W6        30.05F
ROME           MOSUNNY   79  68  69 MISG      30.07F
ELMIRA         SUNNY     84  64  50 CALM      30.05F
BINGHAMTON     PTSUNNY   79  65  62 NE6       30.09F
MONTICELLO     SUNNY     81  63  54 S5        30.10S
$$

NYZ026>034-041>043-012100-
NORTH


CITY           SKY/WX    TMP DP  RH WIND       PRES   REMARKS
WATERTOWN      SUNNY     76  68  76 W10       30.04F
FORT DRUM      NOT AVBL
MASSENA        SUNNY     83  66  56 SW5       30.00F
SARANAC LAKE   SUNNY     82  55  39 W7        30.05F
PLATTSBURGH    SUNNY     80  57  45 SE9       30.00F
$$

NYZ001>004-010>016-019>021-012100-
WEST


CITY           SKY/WX    TMP DP  RH WIND       PRES   REMARKS
NIAGARA FALLS  MOSUNNY   81  66  60 S12       30.04F
BUFFALO        MOSUNNY   80  64  58 SW10      30.06F
DUNKIRK        SUNNY     79  69  71 NW8       30.08S
JAMESTOWN      PTSUNNY   81  63  54 SW8       30.12S
WELLSVILLE     SUNNY     83  59  44 NW8       30.14F
ROCHESTER      MOSUNNY   85  63  47 W6        30.04F
PENN YAN       SUNNY     83  64  52 VRB3      30.07F
$$

             KEY
       WCI = WIND CHILL INDEX
       VSB = VISIBILITY
       HX  = HEAT INDEX
$$


USA.gov is the U.S. government's official web portal to all federal, state and local government web resources and services.